Location: *
(32.3300°N, 34.8500°E)
Time: 19:32:32
(UTC+00:00)

Okean O Rocket - Pass Details

Date: 22 October 2019
Orbit: 622 x 646 km, 98.2° (Epoch: 21 November)

Event Time Altitude Azimuth Distance (km) Brightness Sun altitude
Rises 02:47:43 0° 17° (NNE) 2,928 5.2 -13.7°
Reaches altitude 10° 02:49:59 10° 22° (NNE) 2,013 4.4 -13.2°
Maximum altitude 02:54:16 55° 101° (E) 755 2.4 -12.3°
Drops below altitude 10° 02:58:31 10° 179° (S) 1,988 4.3 -11.4°
Sets 03:00:43 0° 183° (S) 2,888 5.0 -10.9°
